TimeAST,TemperatureF,Dew PointF,Humidity,Sea Level PressureIn,VisibilityMPH,Wind Direction,Wind SpeedMPH,Gust SpeedMPH,PrecipitationIn,Events,Conditions,WindDirDegrees,DateUTC
12:00 AM,78.8,69.8,74,29.98,-9999.0,East,12.7,-,N/A,,Unknown,80,2013-02-13 04:00:00
1:00 AM,77.0,68.0,74,29.98,-9999.0,East,11.5,-,N/A,,Unknown,90,2013-02-13 05:00:00
2:00 AM,78,69,66,,,East,13.8,,,,Clear,90,2013-02-13 06:00:00
2:00 AM,77.0,68.0,74,29.95,-9999.0,East,13.8,-,N/A,,Unknown,90,2013-02-13 06:00:00
3:00 AM,77.0,69.8,78,29.95,-9999.0,East,10.4,-,N/A,,Unknown,90,2013-02-13 07:00:00
4:00 AM,77.0,68.0,74,29.95,-9999.0,East,11.5,-,N/A,,Unknown,90,2013-02-13 08:00:00
5:00 AM,77,68,68,,,East,11.5,,,,,100,2013-02-13 09:00:00
5:00 AM,77.0,68.0,74,29.95,-9999.0,East,11.5,-,N/A,,Unknown,90,2013-02-13 09:00:00
6:00 AM,77.0,69.8,78,29.95,-9999.0,East,9.2,-,N/A,,Unknown,100,2013-02-13 10:00:00
7:00 AM,78.8,69.8,74,29.95,-9999.0,East,12.7,-,N/A,,Unknown,100,2013-02-13 11:00:00
8:00 AM,80,71,67,,,East,12.7,,,,,100,2013-02-13 12:00:00
8:00 AM,80.6,71.6,74,29.98,-9999.0,East,12.7,-,N/A,,Unknown,100,2013-02-13 12:00:00
10:00 AM,82.4,69.8,66,30.01,6.2,East,17.3,-,N/A,,Scattered Clouds,100,2013-02-13 14:00:00
11:00 AM,84.2,68.0,58,30.01,6.2,East,17.3,-,N/A,,Scattered Clouds,100,2013-02-13 15:00:00
1:00 PM,84.2,68.0,58,29.98,6.2,East,17.3,-,N/A,,Scattered Clouds,90,2013-02-13 17:00:00
2:00 PM,85,70,52,29.98,22,ESE,17.3,,,,,110,2013-02-13 18:00:00
2:00 PM,86.0,69.8,58,29.95,-9999.0,ESE,17.3,-,N/A,,Unknown,110,2013-02-13 18:00:00
3:00 PM,84.2,68.0,58,29.95,6.2,East,23.0,-,N/A,,Scattered Clouds,100,2013-02-13 19:00:00
4:00 PM,84.2,69.8,62,29.92,6.2,East,19.6,-,N/A,,Scattered Clouds,100,2013-02-13 20:00:00
5:00 PM,82,71,61,,6,East,17.3,,,,Clear,90,2013-02-13 21:00:00
5:00 PM,82.4,69.8,66,29.92,6.2,East,18.4,-,N/A,,Scattered Clouds,100,2013-02-13 21:00:00
6:00 PM,82.4,68.0,62,29.92,6.2,East,18.4,-,N/A,,Partly Cloudy,100,2013-02-13 22:00:00
7:00 PM,78.8,68.0,69,29.92,-9999.0,East,13.8,-,N/A,,Unknown,80,2013-02-13 23:00:00
8:00 PM,79,69,65,,6,East,13.8,,,,Clear,90,2013-02-14 00:00:00
8:00 PM,78.8,69.8,74,29.95,-9999.0,East,13.8,-,N/A,,Unknown,90,2013-02-14 00:00:00
9:00 PM,78.8,69.8,74,29.95,-9999.0,East,15.0,-,N/A,,Unknown,90,2013-02-14 01:00:00
10:00 PM,78.8,69.8,74,29.98,-9999.0,East,15.0,-,N/A,,Unknown,90,2013-02-14 02:00:00
11:00 PM,78,69,67,,6,East,16.1,,,,Clear,90,2013-02-14 03:00:00
11:00 PM,78.8,69.8,74,29.98,6.2,East,16.1,-,N/A,,Partly Cloudy,90,2013-02-14 03:00:00